Temperature
-1 -1 -1 -0 -1 -1 -1 -0 0 1 0 1 1 1 1 2 2 2 2 2 2 2 2 2 2 2 2 2 2 2 2 2 2 1 1 1 1 1 1 1 1 1 0 0
-1 -1 -1 -1 -1 -1 -1 -1 -1 -1 0 1 1 1 1 1 1 1 2 2 2 2 2 2 2 1 2 1 1 1 1 1 1 1 1 1 0 0 0 0 0 0 0 -0
-1 -2 -1 -1 -1 -1 -2 -2 -1 -0 1 0 -0 0 0 1 1 1 2 2 2 2 2 1 1 1 1 1 1 1 1 0 0 0 0 0 0 -0 -0 -0 -0 -0 -0 -0
-2 -1 -0 1 -1 -1 -1 -2 -2 -1 -1 -1 -0 0 1 1 1 2 2 2 2 1 1 1 1 1 1 0 0 0 -0 -0 -0 -0 -0 -0 -1 -1 -1 -1 -1 -1 -1 -1
-2 -2 -1 -0 -1 -2 -2 -1 -2 -2 -1 -1 -1 -1 0 2 2 2 2 2 1 1 1 1 1 0 0 -0 -0 -0 -1 -1 -1 -1 -1 -1 -1 -1 -1 -1 -1 -1 -1 -1
-3 -1 -0 0 -1 -2 -1 -1 -1 -2 -2 -2 -2 -2 -1 1 1 1 1 1 1 1 0 0 0 -0 -0 -0 -1 -1 -1 -1 -1 -1 -1 -1 -1 -1 -1 -2 -1 -2 -1 -2
-3 -2 -2 -1 -2 -2 -0 0 -0 -1 -1 -1 -2 -1 0 1 1 1 1 1 0 0 0 -0 -0 -1 -1 -1 -1 -1 -1 -1 -1 -1 -2 -2 -2 -2 -2 -2 -2 -2 -2 -2
-4 -3 -1 -2 -3 -2 -1 0 -0 -0 -0 -1 -1 -0 -0 0 0 0 0 0 0 -0 -0 -0 -1 -1 -1 -1 -1 -1 -2 -1 -1 -2 -2 -2 -2 -2 -2 -2 -2 -2 -2 -2
-3 -1 -1 -2 -1 -0 -0 -0 -0 -0 -0 -0 -1 -1 -0 -0 -0 -0 -0 -0 -0 -0 -1 -1 -1 -1 -2 -2 -2 -2 -2 -2 -2 -2 -2 -2 -2 -2 -3 -3 -3 -3 -3 -3
-4 -3 -2 -1 -1 -0 -0 -0 -0 -0 -0 -0 -1 -1 -1 -1 -1 -1 -1 -1 -1 -1 -1 -1 -1 -2 -2 -2 -2 -2 -2 -2 -2 -2 -2 -2 -3 -3 -3 -3 -3 -4 -4 -4
-5 -4 -3 -1 -0 0 0 -0 -0 -0 -1 -1 -1 -1 -1 -1 -1 -1 -1 -1 -1 -1 -1 -1 -2 -2 -2 -2 -3 -3 -2 -2 -2 -3 -3 -3 -3 -3 -3 -3 -4 -4 -4 -4
-3 -2 -2 -1 0 -0 -0 -0 -1 -1 -1 -1 -1 -1 -2 -2 -2 -2 -2 -2 -2 -2 -2 -2 -2 -2 -2 -3 -3 -3 -3 -3 -3 -3 -3 -3 -3 -3 -4 -4 -4 -4 -4 -4
-1 -1 -1 -0 -0 -0 -1 -1 -1 -1 -1 -2 -2 -2 -2 -2 -2 -2 -2 -2 -2 -2 -2 -2 -2 -2 -3 -3 -3 -3 -3 -3 -3 -3 -3 -4 -4 -4 -4 -4 -4 -4 -4 -4
-1 -1 -2 -1 -1 -1 -1 -1 -2 -2 -2 -2 -2 -2 -2 -2 -2 -2 -2 -2 -2 -2 -2 -3 -3 -3 -3 -3 -3 -3 -3 -3 -3 -3 -4 -4 -4 -4 -4 -4 -4 -4 -4 -4
-2 -2 -2 -2 -2 -2 -2 -2 -2 -2 -2 -2 -3 -3 -3 -3 -3 -3 -3 -3 -3 -3 -3 -3 -3 -3 -3 -3 -3 -4 -4 -4 -4 -4 -4 -4 -4 -4 -4 -4 -4 -4 -4 -4
-2 -2 -2 -2 -2 -2 -2 -3 -3 -3 -3 -3 -3 -3 -3 -3 -3 -3 -3 -3 -3 -3 -3 -3 -3 -3 -3 -4 -4 -4 -4 -4 -4 -4 -4 -4 -4 -4 -4 -4 -5 -5 -5 -5
-3 -3 -3 -3 -3 -3 -3 -3 -3 -3 -3 -3 -3 -3 -3 -3 -3 -3 -3 -3 -4 -3 -3 -3 -3 -3 -4 -4 -4 -4 -4 -4 -4 -4 -4 -4 -5 -5 -5 -5 -5 -5 -5 -5
-3 -3 -3 -3 -3 -3 -3 -3 -3 -3 -3 -3 -4 -4 -4 -4 -4 -4 -4 -4 -4 -4 -4 -4 -4 -4 -4 -4 -4 -4 -4 -4 -4 -5 -5 -5 -5 -5 -5 -5 -5 -5 -5 -5
-3 -3 -3 -3 -4 -4 -4 -3 -4 -4 -4 -4 -4 -4 -4 -4 -4 -4 -4 -4 -4 -4 -4 -4 -4 -4 -4 -4 -4 -5 -5 -5 -5 -5 -5 -5 -5 -5 -5 -5 -5 -5 -5 -5
-3 -4 -4 -4 -4 -4 -4 -4 -4 -4 -4 -4 -4 -4 -4 -4 -4 -5 -5 -5 -5 -4 -4 -4 -4 -4 -4 -4 -5 -5 -5 -5 -5 -5 -5 -5 -5 -5 -5 -5 -5 -5 -5 -5
-4 -4 -4 -4 -4 -4 -4 -4 -4 -4 -4 -4 -5 -5 -5 -5 -5 -5 -5 -5 -5 -5 -5 -5 -5 -5 -5 -5 -5 -5 -5 -5 -5 -5 -6 -6 -6 -6 -5 -5 -5 -5 -5 -5
-4 -4 -4 -4 -4 -4 -4 -4 -4 -4 -4 -5 -5 -5 -5 -5 -5 -5 -5 -5 -5 -5 -5 -5 -5 -5 -5 -5 -5 -5 -5 -5 -5 -6 -6 -6 -6 -6 -5 -5 -5 -5 -5 -5
-4 -4 -4 -5 -5 -4 -4 -4 -5 -5 -5 -5 -5 -5 -5 -5 -5 -5 -5 -5 -5 -5 -5 -5 -5 -5 -5 -6 -6 -6 -6 -5 -5 -6 -6 -6 -6 -6 -5 -5 -5 -5 -5 -5
-5 -5 -5 -5 -5 -5 -5 -5 -5 -5 -5 -5 -5 -5 -5 -5 -5 -5 -5 -5 -5 -5 -5 -5 -5 -6 -6 -6 -6 -6 -6 -6 -6 -6 -6 -6 -6 -6 -6 -5 -5 -5 -6 -6
-5 -5 -5 -5 -5 -5 -5 -5 -5 -5 -5 -5 -5 -6 -6 -6 -6 -5 -5 -6 -6 -5 -5 -5 -6 -6 -6 -6 -6 -6 -6 -6 -6 -6 -6 -6 -6 -6 -6 -6 -6 -6 -6 -6
-5 -6 -6 -6 -6 -6 -6 -6 -6 -6 -6 -6 -5 -6 -6 -6 -6 -6 -6 -6 -6 -6 -6 -6 -6 -6 -6 -6 -6 -6 -6 -6 -6 -6 -6 -6 -6 -6 -6 -6 -6 -6 -6 -6
-6 -6 -6 -6 -6 -6 -6 -6 -6 -6 -6 -6 -6 -6 -6 -6 -6 -6 -6 -6 -6 -6 -6 -6 -6 -6 -6 -6 -6 -6 -6 -6 -6 -6 -6 -6 -6 -6 -6 -6 -6 -6 -6 -6
Wind_Speed
7 6 4 7 8 7 9 9 9 9 10 12 9 7 6 4 4 4 4 3 3 3 3 3 3 3 2 3 2 2 2 3 3 3 2 2 2 2 2 2 2 2 2 2
5 5 5 8 10 10 10 9 11 11 14 12 7 5 5 5 5 5 6 5 4 4 3 4 3 3 3 3 3 3 3 3 3 2 2 2 2 2 2 2 2 2 2 3
5 4 3 8 10 11 7 7 8 12 13 7 5 6 6 5 5 6 6 5 5 4 4 5 4 4 4 4 3 3 3 3 3 2 2 2 2 2 2 2 2 2 3 3
1 2 7 7 2 7 8 8 9 8 7 6 7 5 5 5 6 7 6 5 5 4 4 4 3 3 3 3 3 3 3 3 3 3 3 2 2 3 3 2 3 3 3 4
2 4 8 7 3 5 6 7 7 10 9 6 4 3 5 5 5 7 6 5 5 4 4 3 3 3 2 3 3 3 4 4 4 3 3 3 3 4 3 3 3 3 3 4
3 4 6 6 2 3 3 6 4 5 7 5 1 3 6 4 3 4 4 4 3 3 2 3 3 2 3 3 3 4 5 4 4 4 4 4 5 4 3 3 3 3 3 3
5 6 8 6 1 3 3 6 2 3 5 4 5 7 5 4 4 4 4 4 3 2 3 3 3 2 3 4 5 5 4 4 3 4 4 4 4 3 3 3 2 3 4 4
5 5 8 3 5 6 6 3 2 3 3 5 6 6 6 6 5 4 3 3 2 2 3 3 2 2 3 5 5 3 3 3 3 3 3 3 3 3 3 3 3 3 3 4
8 8 5 4 6 5 3 4 4 4 4 4 5 6 5 5 5 4 4 3 2 2 3 3 2 3 4 5 3 2 2 3 3 3 3 3 3 3 2 3 3 3 3 3
6 8 7 7 6 6 5 5 5 5 5 4 5 5 5 4 4 4 4 3 3 2 3 4 3 3 4 4 2 2 3 3 2 2 2 2 2 3 3 3 3 3 3 4
7 8 7 6 6 6 5 5 4 4 4 4 4 5 4 4 5 4 4 3 3 3 4 5 4 4 3 3 2 2 3 3 2 3 3 3 3 3 4 4 5 5 4 4
8 7 6 6 5 4 5 5 5 4 4 3 4 5 4 4 4 4 4 3 3 4 4 4 4 4 3 3 3 3 3 2 2 2 2 2 2 3 4 5 6 7 7 6
8 5 5 6 4 3 4 4 4 3 4 4 4 4 3 3 3 3 4 4 4 5 4 4 4 4 4 3 3 3 3 3 2 2 2 3 2 3 3 4 5 6 7 7
6 4 5 4 4 3 3 3 2 2 3 3 3 2 2 3 3 4 4 4 4 4 4 4 4 5 4 3 3 4 3 4 3 3 3 3 3 3 3 3 3 3 5 7
5 5 5 4 3 3 2 1 2 3 3 3 2 2 2 3 4 5 4 4 3 4 4 4 5 5 3 3 3 4 3 3 3 3 3 3 2 2 3 3 3 3 3 4
4 3 3 3 4 4 2 2 3 4 4 4 3 3 3 4 4 4 4 3 3 5 5 5 6 5 3 3 3 3 3 4 3 2 2 2 2 2 3 3 3 3 3 3
2 3 3 4 5 4 4 4 4 5 4 4 5 4 3 3 4 4 4 3 4 5 5 5 6 4 3 3 3 3 2 3 3 2 2 2 2 3 3 3 3 3 3 3
6 6 5 5 4 5 5 4 4 4 4 4 4 3 3 3 5 5 5 4 4 5 5 5 4 4 3 3 3 2 2 2 2 2 2 2 3 2 2 3 3 3 3 3
3 3 3 3 4 4 4 4 4 4 4 3 3 4 4 5 5 5 4 4 5 6 5 4 5 3 3 3 3 2 2 2 2 2 2 3 3 2 2 3 3 3 2 2
2 2 2 3 2 3 3 4 3 4 4 3 3 4 5 5 5 4 4 4 5 5 5 4 3 3 3 3 3 2 3 3 2 2 2 2 2 2 3 2 2 2 2 2
2 2 2 2 2 2 3 3 3 4 4 3 3 4 5 5 4 4 3 5 5 4 4 5 3 3 3 3 3 2 3 3 3 3 3 3 3 3 2 2 2 2 2 2
2 2 2 2 2 3 3 3 3 3 3 3 4 4 4 5 4 4 4 5 5 6 4 3 3 4 4 3 2 2 2 2 2 2 3 3 3 3 3 2 2 2 2 2
2 2 2 2 2 3 3 3 3 3 3 4 4 4 5 5 4 3 5 4 3 5 4 3 4 5 3 1 2 2 2 2 3 3 3 3 3 3 3 3 2 2 2 2
2 2 2 2 2 2 3 4 3 3 4 4 4 4 4 4 4 4 4 6 6 6 4 5 6 5 2 1 1 2 2 2 2 2 2 2 2 2 2 2 2 2 2 2
2 2 2 2 2 2 3 3 3 3 3 3 4 4 3 3 4 4 3 4 5 5 3 5 5 4 2 1 1 1 2 2 2 2 2 2 2 2 2 2 2 2 2 2
1 2 2 3 3 3 2 2 3 3 3 3 4 3 3 3 3 3 3 3 4 4 3 2 3 2 1 1 1 2 2 2 2 2 2 2 2 2 2 2 2 2 2 2
2 2 2 2 2 2 2 2 3 3 3 3 4 3 3 3 2 2 2 2 2 2 2 2 2 1 1 1 2 2 2 2 2 2 2 2 2 2 2 2 2 2 2 2
Wind_Direction
251 258 239 243 237 215 214 215 225 249 251 265 266 261 264 267 274 276 274 266 250 248 260 270 266 266 263 245 234 218 204 209 222 228 228 219 221 219 213 211 218 214 223 229
266 255 248 263 249 230 231 232 239 258 268 263 262 260 262 259 256 259 261 260 259 256 261 266 261 258 266 246 237 219 214 224 229 226 223 220 227 222 215 220 228 221 226 229
264 282 308 268 234 214 215 214 206 235 251 260 259 249 244 252 257 256 259 256 254 254 255 259 257 247 250 247 233 219 223 233 233 228 233 240 235 226 224 225 227 232 237 233
261 356 251 252 222 197 215 239 226 242 259 255 250 263 257 244 247 258 260 255 254 256 262 263 255 248 253 244 228 226 230 235 235 226 233 239 234 234 236 229 230 237 241 239
190 247 273 287 243 182 201 261 231 237 256 265 284 314 284 251 235 243 248 247 246 246 250 259 261 251 240 232 228 230 236 238 234 222 224 229 235 240 238 229 240 239 238 235
189 224 249 259 247 181 135 280 252 216 240 242 195 272 275 277 260 262 265 256 255 260 261 261 261 231 221 233 233 239 241 240 232 221 219 225 232 235 234 231 240 246 251 242
214 237 263 260 219 128 177 258 286 221 238 223 218 236 268 291 290 274 275 273 264 255 257 253 246 211 226 240 243 245 244 240 234 224 222 224 228 228 228 236 243 248 256 257
187 221 255 211 146 190 228 279 281 264 250 239 245 264 278 283 286 287 289 287 273 262 267 261 232 213 240 253 256 250 241 236 235 229 227 227 218 230 225 218 232 246 252 264
203 223 255 204 218 242 250 264 267 260 262 248 253 262 270 276 280 281 274 274 271 261 274 277 246 222 241 258 259 249 240 240 240 236 228 218 211 221 228 220 232 246 247 258
249 262 259 252 253 263 255 253 261 258 262 252 251 259 267 272 280 282 282 273 274 267 267 276 269 257 250 260 258 236 237 245 240 231 239 233 225 218 221 226 232 240 243 250
256 271 286 270 245 252 259 264 271 278 268 252 246 258 258 266 273 276 281 279 267 257 259 267 276 273 267 255 232 235 241 241 238 232 230 239 241 232 231 229 229 233 237 237
239 240 231 259 258 256 253 261 265 270 276 265 240 253 261 267 270 271 274 278 275 270 265 268 273 272 264 249 227 224 241 239 236 232 234 240 252 275 266 256 260 258 256 257
246 256 244 264 276 259 246 262 269 259 258 275 269 251 252 267 276 273 275 271 265 265 262 263 269 272 270 260 237 225 233 240 238 236 240 245 247 255 277 284 271 265 263 265
252 253 263 258 263 267 258 275 288 292 284 275 274 274 264 272 282 279 276 273 269 267 266 264 264 268 267 254 240 234 234 242 239 231 234 241 240 242 248 261 278 283 274 269
253 239 240 265 283 289 284 288 302 301 301 302 294 282 272 271 278 281 284 288 283 275 270 267 267 271 266 249 238 233 237 238 232 231 231 238 241 241 246 251 260 273 288 282
273 263 245 255 267 277 280 267 270 282 288 288 290 283 275 273 282 290 289 278 271 275 275 271 269 271 265 244 243 239 240 249 242 230 229 235 240 242 245 248 253 256 261 269
231 255 251 258 264 270 265 256 254 267 281 281 280 284 287 290 294 294 292 283 269 269 271 266 267 275 269 246 234 240 239 242 243 235 229 231 236 242 244 244 250 257 260 262
230 237 236 237 248 261 271 270 265 269 272 273 282 287 285 278 280 287 293 299 298 294 283 270 267 268 259 249 236 234 231 233 230 230 235 237 242 242 240 245 250 257 270 269
248 249 254 249 246 247 258 266 269 270 273 276 277 276 274 273 276 281 287 292 292 293 292 285 289 277 256 250 247 224 222 227 235 239 239 243 247 243 244 247 251 255 258 260
269 267 266 272 268 253 259 269 272 275 274 267 271 280 285 285 283 281 281 274 268 269 282 287 279 261 254 251 244 217 216 219 220 227 232 239 243 249 249 248 252 259 261 258
280 274 269 271 281 276 263 261 262 272 279 266 260 268 276 283 285 278 279 285 287 283 283 287 283 270 261 251 237 214 210 212 217 221 227 234 241 247 249 252 256 259 259 264
289 285 280 278 279 290 288 272 263 269 280 279 273 273 279 284 286 279 260 261 281 298 298 278 272 272 267 256 217 203 208 214 219 222 228 232 233 239 245 249 252 256 257 259
286 284 283 282 281 287 300 295 276 268 270 273 274 274 271 271 269 269 283 285 288 297 299 283 285 282 273 236 209 207 211 216 221 225 227 228 231 235 240 246 251 252 255 261
294 299 297 298 300 302 303 300 291 281 276 277 272 268 266 276 277 257 260 292 303 304 298 298 301 297 291 233 219 219 218 219 223 226 226 226 228 232 237 242 251 257 255 260
291 294 297 301 296 285 283 297 306 302 300 298 293 284 270 252 255 277 286 288 298 303 298 305 309 310 308 264 235 231 229 228 229 226 219 225 229 234 238 239 239 243 248 256
281 282 280 275 274 279 286 290 293 296 301 305 306 300 295 285 275 279 286 290 295 305 306 301 308 309 292 269 258 255 253 256 257 248 238 238 237 237 241 243 243 246 252 259
294 296 304 309 302 288 282 280 282 288 285 285 292 296 298 299 298 299 300 305 311 312 308 309 311 300 285 275 269 265 263 264 262 254 250 247 247 247 246 245 253 257 262 260
Height
1499 1497 1497 1495 1495 1498 1498 1495 1494 1485 1483 1473 1471 1470 1469 1469 1468 1468 1467 1467 1467 1467 1467 1468 1468 1468 1468 1468 1468 1468 1469 1469 1469 1470 1470 1470 1470 1470 1470 1470 1471 1471 1471 1472
1498 1495 1495 1493 1490 1491 1491 1489 1488 1484 1477 1468 1468 1467 1467 1466 1466 1465 1464 1464 1464 1464 1464 1465 1465 1465 1465 1465 1465 1465 1465 1465 1466 1466 1466 1466 1466 1466 1466 1467 1467 1467 1467 1468
1495 1495 1492 1489 1481 1482 1482 1480 1480 1477 1469 1465 1466 1464 1463 1463 1463 1462 1461 1461 1461 1461 1462 1462 1462 1462 1462 1462 1462 1462 1462 1462 1462 1462 1462 1462 1463 1463 1463 1463 1463 1463 1464 1464
1497 1496 1490 1474 1472 1472 1474 1472 1471 1468 1464 1463 1462 1461 1461 1461 1460 1459 1459 1459 1459 1459 1459 1459 1459 1459 1459 1459 1459 1459 1459 1459 1459 1459 1459 1459 1459 1459 1459 1459 1459 1460 1460 1460
1498 1495 1485 1474 1470 1471 1472 1468 1464 1464 1461 1461 1460 1460 1458 1457 1458 1457 1457 1457 1457 1456 1456 1456 1456 1456 1456 1455 1456 1455 1455 1455 1455 1455 1455 1455 1455 1455 1455 1455 1455 1456 1456 1456
1497 1491 1483 1469 1467 1466 1469 1467 1459 1459 1459 1459 1460 1462 1456 1454 1454 1454 1454 1454 1453 1453 1453 1453 1453 1452 1452 1452 1452 1452 1452 1452 1452 1451 1451 1451 1451 1451 1451 1451 1451 1452 1452 1452
1493 1490 1478 1467 1465 1467 1471 1463 1457 1456 1456 1457 1457 1456 1454 1452 1452 1451 1451 1451 1450 1450 1450 1450 1449 1449 1448 1448 1448 1448 1448 1448 1448 1448 1447 1447 1447 1447 1447 1447 1447 1447 1447 1447
1490 1487 1475 1463 1465 1465 1460 1456 1455 1454 1454 1453 1453 1451 1450 1449 1449 1448 1448 1448 1447 1447 1446 1446 1446 1445 1444 1444 1444 1444 1444 1444 1444 1444 1444 1444 1444 1444 1444 1443 1443 1443 1442 1442
1475 1469 1461 1459 1458 1456 1456 1455 1453 1452 1451 1451 1450 1448 1448 1447 1446 1446 1445 1445 1444 1444 1443 1443 1442 1442 1441 1441 1441 1440 1440 1440 1440 1440 1440 1440 1440 1439 1439 1439 1439 1438 1438 1438
1469 1461 1457 1455 1454 1454 1453 1452 1451 1450 1449 1448 1447 1446 1445 1444 1444 1443 1442 1442 1441 1440 1439 1439 1439 1439 1438 1438 1437 1437 1437 1437 1437 1436 1436 1436 1436 1435 1435 1435 1434 1434 1434 1434
1464 1457 1454 1451 1451 1450 1450 1449 1448 1447 1446 1445 1444 1443 1442 1441 1441 1440 1439 1439 1438 1437 1436 1436 1436 1436 1435 1435 1434 1434 1433 1433 1433 1433 1432 1432 1432 1432 1431 1431 1431 1431 1431 1431
1455 1451 1451 1448 1447 1447 1446 1446 1445 1444 1443 1442 1442 1440 1439 1438 1438 1437 1437 1436 1435 1434 1433 1433 1433 1432 1432 1432 1431 1430 1430 1430 1429 1429 1429 1428 1428 1428 1428 1428 1428 1428 1428 1428
1448 1446 1446 1445 1445 1444 1444 1443 1442 1441 1440 1439 1439 1438 1436 1435 1435 1434 1434 1433 1432 1431 1430 1430 1430 1429 1429 1429 1428 1427 1427 1427 1426 1426 1426 1425 1425 1424 1424 1424 1424 1424 1424 1424
1444 1444 1442 1442 1442 1442 1441 1440 1440 1439 1438 1437 1436 1435 1434 1433 1432 1431 1431 1430 1429 1428 1428 1427 1426 1426 1426 1426 1425 1425 1424 1424 1423 1423 1423 1422 1422 1422 1421 1421 1420 1420 1421 1421
1440 1440 1440 1439 1439 1439 1438 1437 1436 1436 1435 1434 1433 1432 1431 1430 1429 1429 1428 1427 1426 1425 1424 1424 1423 1423 1423 1422 1422 1421 1421 1421 1420 1420 1420 1420 1419 1419 1419 1418 1417 1417 1417 1417
1436 1436 1436 1436 1436 1435 1435 1434 1434 1433 1432 1431 1430 1430 1429 1428 1427 1426 1425 1424 1423 1422 1421 1421 1420 1420 1420 1419 1419 1418 1418 1418 1418 1417 1417 1417 1416 1416 1415 1415 1415 1414 1414 1414
1434 1433 1433 1433 1432 1432 1432 1432 1431 1430 1429 1429 1428 1427 1426 1425 1424 1424 1423 1422 1421 1420 1419 1418 1417 1417 1416 1416 1416 1415 1415 1415 1415 1414 1414 1414 1414 1413 1413 1412 1412 1412 1412 1412
1431 1431 1431 1430 1430 1429 1429 1429 1428 1428 1427 1426 1425 1424 1423 1423 1421 1421 1420 1419 1418 1417 1416 1415 1414 1413 1413 1413 1412 1412 1412 1412 1412 1411 1411 1411 1411 1411 1410 1410 1410 1409 1409 1409
1427 1428 1427 1427 1427 1427 1426 1426 1426 1425 1425 1424 1423 1422 1421 1420 1419 1418 1417 1416 1414 1413 1412 1412 1411 1410 1410 1410 1410 1409 1409 1409 1409 1409 1409 1409 1408 1408 1408 1408 1407 1407 1407 1407
1425 1425 1425 1425 1425 1424 1424 1424 1423 1423 1422 1421 1420 1419 1418 1417 1416 1415 1414 1413 1412 1411 1410 1409 1408 1408 1407 1407 1407 1407 1407 1407 1407 1406 1406 1406 1406 1406 1406 1406 1405 1405 1405 1405
1423 1423 1423 1423 1422 1422 1422 1422 1421 1420 1420 1419 1418 1417 1415 1414 1414 1412 1411 1410 1409 1409 1408 1407 1406 1405 1405 1405 1405 1404 1404 1404 1404 1404 1404 1404 1404 1404 1404 1404 1404 1404 1403 1403
1422 1421 1421 1421 1421 1420 1420 1419 1419 1418 1417 1416 1415 1414 1413 1412 1411 1410 1409 1408 1407 1406 1405 1404 1403 1403 1402 1402 1402 1402 1402 1402 1402 1402 1402 1402 1402 1402 1402 1402 1402 1402 1402 1402
1421 1420 1420 1419 1419 1418 1418 1417 1417 1416 1415 1414 1413 1412 1411 1410 1408 1407 1406 1405 1404 1403 1402 1402 1401 1400 1400 1399 1399 1399 1399 1400 1400 1400 1400 1400 1400 1400 1400 1401 1401 1401 1401 1400
1419 1418 1418 1417 1417 1416 1415 1415 1414 1414 1413 1412 1411 1410 1408 1407 1406 1405 1404 1403 1402 1401 1400 1399 1399 1398 1398 1397 1397 1397 1397 1397 1397 1398 1398 1398 1398 1398 1399 1399 1399 1399 1399 1399
1417 1417 1416 1415 1415 1414 1413 1413 1412 1411 1411 1409 1408 1407 1406 1405 1404 1403 1402 1401 1400 1399 1398 1397 1396 1396 1395 1395 1395 1395 1395 1395 1395 1395 1396 1396 1396 1396 1397 1397 1397 1397 1397 1398
1416 1415 1415 1414 1413 1412 1412 1411 1410 1409 1408 1407 1406 1405 1404 1403 1402 1401 1400 1399 1398 1397 1396 1395 1394 1394 1393 1393 1393 1393 1393 1393 1393 1393 1394 1394 1394 1395 1395 1395 1395 1396 1396 1396
1415 1414 1413 1412 1412 1411 1410 1409 1408 1407 1406 1405 1404 1403 1402 1401 1400 1399 1398 1397 1396 1395 1394 1393 1393 1392 1391 1391 1391 1391 1391 1391 1391 1391 1391 1392 1392 1393 1393 1393 1393 1394 1394 1394